This demonstration page uses our WeatherBlox Daily Observations layout. Learn more.

Left ArrowRight Arrow

36.17497, -115.13722

Hourly Observations for September 1, 2015

Temp ( °F °C ) Dew Point ( °F °C ) Humidity (%) Winds ( mph kmh ) Pressure ( in mb ) Visibility ( mi km ) Precip ( " mm )
12:53 am 00:53 Clear 83 28.3 34 1.1 17 17 E 3 6 29.79 1009 10 16 N/A
1:53 am 01:53 Clear 82 27.8 35 1.7 18 18 N N/A 29.79 1009 10 16 N/A
2:53 am 02:53 Clear 83 28.3 36 2.2 19 19 N N/A 29.79 1009 10 16 N/A
3:53 am 03:53 Clear 79 26.1 38 3.3 23 23 WNW 6 9 29.80 1009 10 16 N/A
4:53 am 04:53 Clear 78 25.6 38 3.3 24 24 N 3 6 29.81 1009 10 16 N/A
5:53 am 05:53 Clear 75 23.9 39 3.9 27 27 N N/A 29.83 1010 10 16 N/A
6:53 am 06:53 Sunny 76 24.4 42 5.6 30 30 NNE 3 6 29.86 1011 10 16 N/A
7:53 am 07:53 Sunny 83 28.3 42 5.6 24 24 ENE 5 7 29.88 1012 10 16 N/A
8:53 am 08:53 Sunny 86 30 47 8.3 26 26 S 9 15 29.88 1012 10 16 N/A
9:53 am 09:53 Sunny 88 31.1 47 8.3 24 24 SSE 8 13 29.89 1012 10 16 N/A
10:53 am 10:53 Sunny 91 32.8 48 8.9 23 23 undefined N/A 29.89 1012 10 16 N/A
11:53 am 11:53 Sunny 93 33.9 51 10.6 24 24 SE 14 22 29.86 1011 10 16 N/A
12:53 pm 12:53 Sunny 96 35.6 50 10 21 21 S 12 19 29.84 1010 10 16 N/A
1:53 pm 13:53 Sunny 96 35.6 52 11.1 23 23 S 15 24 29.83 1010 10 16 N/A
2:53 pm 14:53 Sunny 99 37.2 52 11.1 21 21 SSE 20 31 29.79 1009 10 16 N/A
3:53 pm 15:53 Partly Cloudy 97 36.1 51 10.6 21 21 SSE 10 17 29.78 1008 10 16 N/A
4:53 pm 16:53 Sunny 100 38 43 6 14 14 S 14 22 29.56 1001 10 16 N/A
5:53 pm 17:53 Sunny 97 36.1 48 8.9 19 19 SSW 15 24 29.77 1008 10 16 N/A
6:53 pm 18:53 Mostly Cloudy 95 35 51 10.6 23 23 S 14 22 29.77 1008 10 16 N/A
7:53 pm 19:53 Mostly Clear 93 33.9 50 10 23 23 SW 6 9 29.79 1009 10 16 N/A
8:53 pm 20:53 Clear 92 33.3 50 10 24 24 SSW 6 9 29.81 1010 10 16 N/A
9:53 pm 21:53 Clear 91 32.8 53 11.7 27 27 SSW 12 19 29.83 1010 10 16 N/A
10:53 pm 22:53 Clear 89 31.7 53 11.7 29 29 SSW 7 11 29.84 1011 10 16 N/A
11:53 pm 23:53 Clear 88 31.1 53 11.7 30 30 SSW 8 13 29.84 1011 10 16 N/A

Powered by AerisWeather